Regional Weather Roundup
Issued by NWS Wakefield, VA

Home | Current Version | Previous Version | Text Only | Print | Product List | Glossary On
Versions: 1 2 3 4 5 6 7 8 9 10 11 12 13 14 15 16 17 18 19 20 21 22 23 24 25 26 27
000
ASUS41 KAKQ 051315
RWRAKQ

REGIONAL WEATHER ROUNDUP
NATIONAL WEATHER SERVICE WAKEFIELD VA
800 AM EST MON DEC 05 2016

Note: "fair" indicates few or no clouds below 12,000 feet with no
significant weather and/or obstructions to visibility. * = Denotes
station may not report precipitation (e.g., rain,snow,etc.),
thunder or fog.

VAZ042-051-052>054-056-051400-
NORTHERN VIRGINIA

CITY           SKY/WX    TMP DP  RH WIND       PRES   REMARKS
WASH NATIONAL  CLOUDY    43  41  93 SW5       30.01S
DULLES         CLOUDY    40  37  89 CALM      30.01R
FORT BELVOIR   CLOUDY    42  39  90 CALM      30.01R
QUANTICO       CLOUDY    42  39  89 CALM      30.03R
FREDERICKSBRG* CLOUDY    41  41 100 SW3       30.00R
STAFFORD*      CLOUDY    40  40 100 CALM      30.05R
WARRENTON      CLOUDY    41  36  83 CALM      30.00R
CULPEPER*      CLOUDY    41  39  95 CALM      30.02R
MANASSAS*      CLOUDY    41  39  93 SW5       30.01R
LEESBURG*      CLOUDY    41  41 100 MISG      30.01R
WINCHESTER     CLOUDY    37  36  93 W3        29.98R
FRONT ROYAL*   PTSUNNY   36  36 100 CALM      29.97R
LURAY*         FAIR      37  37 100 CALM      29.98R
$$

VAZ048-049-060>072-079>083-051400-
CENTRAL AND SOUTH CENTRAL VIRGINIA

CITY           SKY/WX    TMP DP  RH WIND       PRES   REMARKS
RICHMOND       FOG       40  40 100 CALM      29.99S VSB 1
CHESTERFIELD*  CLOUDY    41  25  52 NW3       30.01R VSB 1/4
PETERSBURG*    CLOUDY    40  39  97 CALM      30.00S FOG
HANOVER        CLOUDY    41  38  89 CALM      30.01S
TAPPAHANNOCK*  CLOUDY    42  42 100 W3        30.01S FOG
QUINTON*       FOG       40  40 100 MISG      29.98F VSB 3/4
CHARLOTTSVILLE CLOUDY    40  37  89 CALM      29.99R FOG
GORDONSVILLE*  CLOUDY    39  38  99 W5        30.00R
ORANGE*          N/A     39  39 100 CALM      30.01R
LOUISA*        CLOUDY    43  41  93 SW3       29.98S FOG
BUMPASS*       CLOUDY    39  39 100 CALM      29.99S
FARMVILLE*     CLOUDY    40  40 100 CALM      29.99R FOG
CREWE*         CLOUDY    39  39 100 CALM      29.99R VSB<1/4
FORT PICKETT*  CLOUDY    40  37  87 CALM      29.99R
CHASE CITY*    CLOUDY    40  38  94 CALM      30.00R
CLARKSVILLE*   CLOUDY    41  41 100 CALM      29.99S
SOUTH HILL*    CLOUDY    40  40 100 CALM      30.05R
LAWRENCEVILLE* CLOUDY    41  40  97 CALM      30.00R
EMPORIA*       CLOUDY    41  41 100 CALM      30.01S
$$

VAZ088>098-051400-
SOUTHEAST VIRGINIA

CITY           SKY/WX    TMP DP  RH WIND       PRES   REMARKS
NORFOLK        CLOUDY    48  47  96 N7        29.97F
VIRGINIA BEACH CLOUDY    48  46  93 N5        29.96F FOG
NORFOLK NAVAL  CLOUDY    48  46  93 N7        29.99F
WEST POINT*      N/A     41  41  99 CALM      30.01F
SALUDA*        CLOUDY    42  42 100 CALM      29.98F
NEWPORT NEWS   CLOUDY    45  44  97 CALM      29.98F
LANGLEY AFB    CLOUDY    46  45  93 N3        29.97F
FORT EUSTIS    CLOUDY    45  43  93 CALM      29.97R
WILLIAMSBURG*  CLOUDY    45  45 100 CALM      29.99F
HR EXEC AP*    CLOUDY    46  43  87 CALM      29.97F
FRANKLIN*      CLOUDY    42  42  97 CALM      29.99F
US460-WAKEFLD  CLOUDY    43  42  97 CALM      29.99S FOG
$$

VAZ020-022-025-037-045-051400-
WEST CENTRAL AND SOUTHWEST VIRGINIA

CITY           SKY/WX    TMP DP  RH WIND       PRES   REMARKS
STAUNTON*      CLEAR     32  32 100 CALM      30.00R
WAYNESBORO*    FAIR      39  37  93 SW7       29.97R
HOT SPRINGS VA CLOUDY    37  37 100 W20G28    29.92R
LYNCHBURG      FOG       38  38 100 SW5       30.00R VSB 1/4
DANVILLE       CLOUDY    41  41 100 N5        30.00R
SOUTH BOSTON*  CLOUDY    40  39  95 CALM      30.00F
MARTINSVILLE   FOG       38  38  97 CALM      30.02S VSB 1/4
ROANOKE        MOCLDY    38  37  97 NE8       30.02R
BLACKSBURG     CLOUDY    45  40  82 W8        30.03R
DUBLIN*        CLOUDY    47  42  82 NW15      30.02R
MARION*        CLOUDY    44  43  96 CALM      30.04R FOG
HILLSVILLE*    CLOUDY    43  43  99 CALM      30.00R
RICHLANDS*     CLOUDY    42  42 100 N5        30.03S FOG
WISE*          CLOUDY    43  43 100 CALM      30.04S
ABINGDON*      CLOUDY    46  46 100 CALM      30.04R FOG
$$

MDZ021>025-VAZ099-100-051400-
SOUTHERN MARYLAND AND THE DELMARVA PENINSULA

CITY           SKY/WX    TMP DP  RH WIND       PRES   REMARKS
PATUXENT RIVER CLOUDY    42  40  92 W3        30.00S
BAY BRIDGE APT CLOUDY    43  41  93 W8        30.01S
LEONARDTOWN    CLOUDY    41  39  93 CALM      30.01S
DOVER          CLOUDY    41  41 100 S3        29.99F
GEORGETOWN     MOCLDY    43  41  93 CALM      30.01S
EASTON         CLOUDY    45  41  87 CALM      30.04S
CAMBRIDGE      CLOUDY    41  41 100 CALM      30.00S
SALISBURY      CLOUDY    43  42  97 CALM      30.00S
OCEAN CITY     CLOUDY    44  43  96 CALM      30.00F
WALLOPS ISLAND CLOUDY    44  44 100 CALM      30.00F
ACCOMACK*      CLOUDY    45  45  99 NE3       29.99F FOG
$$

NCZ012>017-030>032-051400-
NORTH CENTRAL AND EASTERN NORTH CAROLINA

CITY           SKY/WX    TMP DP  RH WIND       PRES   REMARKS
ROANOKE RAPIDS CLOUDY    43  43 100 CALM      30.00R
RALEIGH        MOCLDY    43  41  93 CALM      30.00R FOG
ELIZABETH CITY CLOUDY    47  46  97 N13       29.96F
AHOSKIE*       CLOUDY    42  42  99 N5        29.99F
EDENTON*       CLOUDY    47  45  93 N5        29.96F
CURRITUCK*     CLOUDY    47  47 100 N6        29.97S
KILL DEVIL HLS DRIZZLE   52  52 100 N7        29.92S
MANTEO         DRIZZLE   51  51 100 N9        29.94S
CAPE HATTERAS  CLOUDY    59  58  96 NW7       29.90R
TARBORO*       NOT AVBL
GOLDSBORO      CLOUDY    45  45 100 N3        29.98R
WASHINGTON     CLOUDY    45  44  96 N10       29.97F
GREENVILLE     CLOUDY    45  45 100 N5        29.99F
NEW BERN       LGT RAIN  48  47  96 N9        29.98R
WILMINGTON     CLOUDY    52  52 100 NW10      29.98R
$$

VAZ048-051400-
ELSEWHERE

CITY           SKY/WX    TMP DP  RH WIND       PRES   REMARKS
HARRISBURG PA  DRIZZLE   40  39  97 CALM      29.99R
BALTIMORE      CLOUDY    41  41 100 CALM      30.00S
ANNAPOLIS      CLOUDY    44  40  85 CALM      30.01S
ANDREWS AFB    CLOUDY    41  39  93 W5        30.00R
PHILADELPHIA   CLOUDY    42  39  89 S10       30.01F
HENDERSON NC   PTCLDY    38  37  98 CALM      29.99R FOG
GREENSBORO     CLOUDY    42  41  96 CALM      29.99R
ROCKY MOUNT    CLOUDY    44  44 100 N3        30.00R
$$

VAZ100-051400-
MARINE

STATION/POSITION TIME  TEMP    WIND        PRES    WAVE   SWELL
                       AIR SEA DIR/SP/G            HT/PER HT/PER
                 (UTC) (F)     (DEG/KT/KT) (MB)    (FT/S) (FT/S)
BRANDYWINE LGT   1236   43     240/ 10/ 11   N/A
CAPE MAY NJ      1236   44 47  260/  8/  9 1015.8R
LEWES DE         1236   42 49  280/  4/  5 1015.9F
OCEAN-CITY-INLET 1242   44 50  260/  2/  2 1016.1F
WACHAPREAGUE VA  1242   45 47   20/  2/  4 1015.3F
THOMAS POINT MD  1200   42 49  230/  9/ 10   N/A
GOOSES REEF MD   1300   44 50  240/  8/ 10 1016.7    1
COVE POINT MD    1242   42     300/  3/  5 1016.4S
SOLOMONS ISLAND  1242   43 51  250/  7/  8   N/A
BISHOPS HEAD MD  1242   45 45  260/  4/  5 1016.0R
PINEY POINT MD   1242          270/  5/  7   N/A
POTOMAC MD       1300   44 50  290/  8/  8 1014.8    1
CAMBRIDGE MD     1242   43 47  300/  2/  3 1015.3F
LEWISETTA VA     1242   42 48  290/  5/  6 1015.6R
RAPPAHANNOCK LGT 1242           70/  2/  3 1015.6F
STINGRAY PT      1300   45     300/  2/  4 1015.5    0
YORK RVR RNG VA  1242   45      10/  6/  6 1014.8F
YORKTOWN VA      1242   45 51   20/  3/  4 1014.8F
JAMESTOWN VA     1300   43 52   10/  4/  4   N/A     0
DOMINION TERM VA 1242   46     360/  5/  6 1015.2F
KIPTOPEKE VA     1242      52   10/  4/  5   N/A
CHES BAY BRIDGE  1242   48 54   10/  9/ 10 1014.8F
CAPE HENRY VA    1242   48     350/  8/ 10   N/A
WILLOUBY STN VA  1242   46     360/  7/  8 1016.0F
S CRANEY ISL VA  1242   46      10/  5/  7 1014.9F
CAPE HENRY BUOY  1242      56                N/A     3/ 8
1ST LANDING BUOY 1300   48 53              1015.1    2/ 3
CAPE CHARLES BUO 1256      55                N/A     2/ 7
OFFSHORE WE BUOY 1251      56                N/A     3/ 8
64NM E OF VA BCH 1150   61 60  200/ 10/ 17 1012.4    3/ 8   2/ 8
DUCK PIER NC     1242   51 54  350/ 20/ 23 1013.1R
44100 DUCK FRF   1205      56                N/A     3/10
OREGON INLET NC  1242   53 56  320/ 11/ 14 1013.3R
HATTERAS NC      1242   61 60  280/ 14/ 20 1012.2R
DIAMOND SHLS NC  1150   71 74  210/ 25/ 31 1011.7    6/ 6   2/ 8
CAPE LOOKOUT NC  1200   62     280/ 13/ 16 1012.7R
$$




USA.gov is the U.S. government's official web portal to all federal, state and local government web resources and services.